Find Starlink 38303

NORAD ID: 100451 Int'l Des: 2026-193 Owner: SPXS Country: US Constellation: starlink operational

Current View

Loading 3D Globe...

About Starlink 38303

Starlink 38303 (NORAD 100451) is a starlink constellation satellite launched Aug 22, 2026 by SPXS of US. with a mass of 575.00 kg.

Upcoming Passes

Passes for default location (London). Set your location on the main map for personalized predictions.

Altitude History

Loading altitude history...

Two-Line Element Set

1 A0451U 26193U 26262.20578864 -.00736423 00000-0 -19569-1 0 9997
2 A0451 70.0006 77.8692 0002158 301.5222 58.5748 15.40574010 5497
Epoch: Sep 19, 2026 • Age: 33 hours

Current Status

Altitude 454.1 km
Apogee / Perigee N/A
Velocity 7.64 km/s
Sub-Earth Point 31.24°N, 120.06°W
Launch Date Aug 22, 2026
Age 29 days
Type internet

Technical Details

Classification Payload
Mass 575.00 kg
Dry Mass 530.00 kg
Length 0.30 m
Span 29.00 m
Shape ? Box + pan
Manufacturer SPXS
Bus Type Starlink V2MO
Phase Status In Orbit
Owner/State SPXS/US

Most Searched